Regional Weather Roundup
Issued by NWS

Home | Current Version | Previous Version | Graphics & Text | Print | Product List | Glossary Off
Versions: 1 2 3 4 5 6 7 8 9 10 11 12 13 14 15 16 17 18 19 20 21 22 23 24 25 26 27 28 29 30 31 32 33 34 35 36 37 38 39 40 41 42 43 44 45 46 47 48 49 50

000
ASUS43 KMKX 010200
RWRWI

WISCONSIN REGIONAL WEATHER ROUNDUP
NATIONAL WEATHER SERVICE MILWAUKEE/SULLIVAN WI
900 PM CDT SUN AUG 31 2014

NOTE: "FAIR" INDICATES FEW OR NO CLOUDS BELOW 12,000 FEET WITH NO
SIGNIFICANT WEATHER AND/OR OBSTRUCTIONS TO VISIBILITY.

WIZ001-002-006>008-014>016-023>028-010300-
NORTHWEST WISCONSIN

CITY           SKY/WX    TMP DP  RH WIND       PRES   REMARKS
SUPERIOR ARPT  MOCLDY    62  61  97 E8        29.62R
ASHLAND        MOCLDY    74  67  78 S6        29.65R
HAYWARD        CLOUDY    74  69  85 SW6       29.66R
SIREN          CLOUDY    73  66  77 SW8       29.64R
RICE LAKE      TSTM      66  64  93 SW13G18   29.68R
LADYSMITH      MOCLDY    75  68  79 SE12G18   29.69F
EAU CLAIRE     NOT AVBL
MENOMONIE      CLOUDY    78  69  74 S14       29.66R HX  80
NEW RICHMOND   CLOUDY    76  64  66 SW17G24   29.66R
OSCEOLA        MOCLDY    76  70  81 SW5       29.67R
$$

WIZ003>005-009-010-017-018-010300-
NORTH CENTRAL WISCONSIN

CITY           SKY/WX    TMP DP  RH WIND       PRES   REMARKS
WOODRUFF       CLEAR     72  68  87 S12G20    29.75F
RHINELANDER    CLEAR     67  65  93 VRB7      29.78F
EAGLE RIVER    MOCLDY    66  64  94 S8        29.77F
LAND O LAKES   MOCLDY    67  64  89 S7G16     29.77F
PHILLIPS       MOCLDY    71  66  85 SE10      29.70F
TOMAHAWK       PTCLDY    69  64  86 SE6       29.77F
MEDFORD        CLOUDY    72  66  83 SE9       29.75F
MERRILL        MOCLDY    71  67  87 SE7       29.77F
$$

WIZ029-030-035-036-043>047-010300-
CENTRAL WISCONSIN

CITY           SKY/WX    TMP DP  RH WIND       PRES   REMARKS
WAUSAU         MOCLDY    72  67  84 SE10      29.75F
MOSINEE        MOCLDY    72  68  88 SE10      29.78F
MARSHFIELD     MOCLDY    74  67  78 S8        29.74F
STEVENS POINT  PTCLDY    71  66  84 SE5       29.79F
WAUPACA        PTCLDY    73  70  89 E7        29.79F
WAUTOMA        NOT AVBL
WISC RAPIDS    MOCLDY    74  67  78 SE7       29.77F
CAMP DOUGLAS   NOT AVBL
$$

WIZ011>013-019>022-031-037>040-048>050-010300-
NORTHEAST WISCONSIN

CITY           SKY/WX    TMP DP  RH WIND       PRES   REMARKS
ANTIGO         CLOUDY    67  66  97 SE12      29.81F FOG
STURGEON BAY   CLOUDY    64  61  88 SE9       29.85F
GREEN BAY      MOCLDY    67  65  93 SE9       29.82F
MANITOWOC      NOT AVBL
APPLETON       PTCLDY    70  68  94 SE8       29.82F
CLINTONVILLE   CLOUDY    68  64  88 SE5       29.81S FOG
OSHKOSH        CLEAR     70  68  93 S5        29.81F
$$

WIZ032>034-041-042-053>061-010300-
SOUTHWEST WISCONSIN

CITY           SKY/WX    TMP DP  RH WIND       PRES   REMARKS
LA CROSSE      CLOUDY    70  66  87 SE6       29.71F
SPARTA         LGT RAIN  77  66  68 W6        29.75S
VIROQUA        FAIR      75  67  77 SE7       29.77S
BOSCOBEL       MOCLDY    78  67  68 VRB3      29.75F HX  80
PRAIRIE DU CHI PTCLDY    79  67  67 SE6       29.73S HX  81
PLATTEVILLE    FAIR      74  68  82 CALM      29.81R
$$

WIZ056-057-062-063-064-067-068-010300-
SOUTH CENTRAL WISCONSIN

CITY           SKY/WX    TMP DP  RH WIND       PRES   REMARKS
BARABOO/DELLS  PTCLDY    76  65  68 S12G17    29.78F
LONE ROCK      NOT AVBL
WATERTOWN      CLEAR     73  69  87 SE6       29.82F
MADISON        PTCLDY    78  67  68 S13       29.80F HX  80
MIDDLETON      FAIR      77  67  69 SE9       29.80F
MONROE         PTCLDY    73  68  83 S9        29.82F
JANESVILLE     CLEAR     75  66  73 SE10      29.81F
$$

WIZ051-052-058>065-066-070>072-010300-
SOUTHEAST WISCONSIN

CITY           SKY/WX    TMP DP  RH WIND       PRES   REMARKS
MILWAUKEE      PTCLDY    73  66  78 S8        29.85F
WAUKESHA       CLEAR     72  64  78 S9        29.85F
MILWAUKEE/TIMM CLEAR     75  64  69 S5        29.85F
RACINE         CLEAR     72  68  87 S3        29.87F FOG
BURLINGTON     CLEAR     70  65  84 S6        29.86F
KENOSHA        CLEAR     74  65  73 SE5       29.86F
FOND DU LAC    CLEAR     70  67  90 S10       29.81F
SHEBOYGAN      FOG       67  66  97 SE6       29.85F VSB 1/2
WEST BEND      MOCLDY    66  63  88 CALM      29.85F FOG
JUNEAU         CLEAR     72  65  80 SE9       29.84S
$$

LSZ147-162-010300-
LAKE SUPERIOR

STATION/POSITION TIME  TEMP    WIND        PRES    WAVE
                       AIR SEA DIR/SP/G            HT/PER
                 (UTC) (F)     (DEG/KT/KT) (MB)    (FT/S)
W MID LAKE BUOY  0050   63 58  110/ 10/ 12 1004.5F   2/ 4
DEVILS ISLAND    0100   66     110/  8/  8 1003.1F
PORT WING        0100   63      10/  8     1004.4R
SAXON HARBOR     0000   76     190/  7/ 13 1004.1F
$$

LMZ867-665-643>646-010300-
LAKE MICHIGAN

STATION/POSITION TIME  TEMP    WIND        PRES    WAVE
                       AIR SEA DIR/SP/G            HT/PER
                 (UTC) (F)     (DEG/KT/KT) (MB)    (FT/S)
N MID LAKE BUOY  0050   65 66  150/ 10/ 10 1011.3F   1
NORTHPORT PIER   0100   65     150/  9/ 13 1011.2F
KEWAUNEE LAKESHO 0100   62     180/  6/  9 1010.4F
SHEBOYGAN LAKESH 0100   65 53  160/  7/  8 1011.5F
ATWATER BUOY     0100   71     160/ 12/ 14 1012.0F
MILWAUKEE LAKESH 0100   69     160/ 11/ 12   N/A
S MID LAKE BUOY  0050   72 71  130/  8/  8 1011.9F   1
KENOSHA   LAKESH 0100   72     170/  7/  7 1010.8F
$$

TC  - TEMPERATURE IN CELSIUS
VSB - VISIBILITY IN STATUTE MILES
WCI - WIND CHILL INDEX
HX  - HEAT INDEX



USA.gov is the U.S. government's official web portal to all federal, state and local government web resources and services.